Tracking 29528 objects as of 12-Sep-2024
HD Live streaming from Space Station
objects crossing your sky now

FENGYUN 1C DEB

Track FENGYUN 1C DEB now!
10-day predictions


NORAD ID: 36710
Int'l Code: 1999-025EAG
Perigee: 703.6 km
Apogee: 814.7 km
Inclination: 98.4 °
Period: 99.9 minutes
Semi major axis: 7130 km
RCS: 0.0087 m2 (small)
Launch date: May 10, 1999
Source: People's Republic of China (PRC)
Launch site: Taiyaun Space Center, China (TSC)

Note: This is SATELLITE DEBRIS
Your satellite tracking list
Your tracking list is empty




NASA's NSSDC Master Catalog

Two Line Element Set (TLE):
1 36710U 99025EAG 24256.42413366  .00014953  00000-0  44026-2 0  9990
2 36710  98.4270 311.3654 0077952 127.1475 233.6868 14.41964584583568
Source of the keplerian elements: AFSPC